SNOHOMISH--AT SNOHOMISH (SNAW1)

ObservedForecast/Trend
Date/Time (PDT)StageDischargeDate/Time (PDT)StageDischarge
2022-07-03 13:0011.3218000    2022-07-03 14:0010.8118000
2022-07-03 12:4511.5018000    2022-07-03 15:0010.2518000
2022-07-03 12:3011.7118000    2022-07-03 16:009.9518000
2022-07-03 12:1511.9018000    2022-07-03 17:0010.0318000
2022-07-03 12:0012.1218000    2022-07-03 18:0010.8218000
2022-07-03 11:4512.3318000    2022-07-03 19:0011.6318000
2022-07-03 11:3012.5618000    2022-07-03 20:0013.6718000
2022-07-03 11:1512.7718000    2022-07-03 21:0015.9318000
2022-07-03 11:0013.0018000    2022-07-03 22:0016.7618000
2022-07-03 10:4513.2018000    2022-07-03 23:0016.8618000
2022-07-03 10:3013.4018000    2022-07-04 00:0016.4918000
2022-07-03 10:1513.5918000    2022-07-04 01:0015.7518000
2022-07-03 10:0013.7718000    2022-07-04 02:0014.5818000
2022-07-03 09:4513.9518000    2022-07-04 03:0013.5218000
2022-07-03 09:3014.0918000    2022-07-04 04:0013.0018000
2022-07-03 09:1514.2218000    2022-07-04 05:0012.7618000
2022-07-03 09:0014.3118000    2022-07-04 06:0012.8518000
2022-07-03 08:4514.3618000    2022-07-04 07:0013.2618000
2022-07-03 08:3014.4018000    2022-07-04 08:0013.7718000
2022-07-03 08:1514.3818000    2022-07-04 09:0014.0118000
2022-07-03 08:0014.3518000    2022-07-04 10:0013.6518000
2022-07-03 07:4514.3018000    2022-07-04 11:0013.0418000
2022-07-03 07:3014.2018000    2022-07-04 12:0012.3518000
2022-07-03 07:1514.0718000    2022-07-04 13:0011.7018000
2022-07-03 07:0013.9818000    2022-07-04 14:0011.5018000
2022-07-03 06:4513.8618000    2022-07-04 15:0011.1518000
2022-07-03 06:3013.7318000    2022-07-04 16:0010.6418000
2022-07-03 06:1513.6018000    2022-07-04 17:0010.4118000
2022-07-03 06:0013.4818000    2022-07-04 18:0010.6118000
2022-07-03 05:4513.3518000    2022-07-04 19:0011.5018000
2022-07-03 05:3013.2318000    2022-07-04 20:0012.9718000
2022-07-03 05:1513.0918000    2022-07-04 21:0015.5218000
2022-07-03 05:0012.9818000    2022-07-04 22:0016.6718000
2022-07-03 04:4512.9218000    2022-07-04 23:0016.8318000
2022-07-03 04:3012.9018000    2022-07-05 00:0016.5218000
2022-07-03 04:1512.9218000    2022-07-05 01:0015.8818000
2022-07-03 04:0012.9818000    2022-07-05 02:0014.7518000
2022-07-03 03:4513.0818000    2022-07-05 03:0013.5918000
2022-07-03 03:3013.2218000    2022-07-05 04:0012.9018000
2022-07-03 03:1513.3618000    2022-07-05 05:0012.4318000
2022-07-03 03:0013.5518000    2022-07-05 06:0012.1518000
2022-07-03 02:4513.7318000    2022-07-05 07:0012.1918000
2022-07-03 02:3013.9218000    2022-07-05 08:0012.5818000
2022-07-03 02:1514.1418000    2022-07-05 09:0013.1018000
2022-07-03 02:0014.3618000    2022-07-05 10:0013.3318000
2022-07-03 01:4514.5818000    2022-07-05 11:0013.1118000
2022-07-03 01:3014.8018000    2022-07-05 12:0012.5818000
2022-07-03 01:1515.0118000    2022-07-05 13:0011.9618000
2022-07-03 01:0015.2418000    2022-07-05 14:0011.3518000
2022-07-03 00:4515.4418000    2022-07-05 15:0011.1418000
2022-07-03 00:3015.6418000    2022-07-05 16:0010.9318000
2022-07-03 00:1515.8118000    2022-07-05 17:0010.6318000
2022-07-03 00:0015.9818000    2022-07-05 18:0010.4218000
2022-07-02 23:4516.1618000    2022-07-05 19:0010.7318000
2022-07-02 23:3016.3018000    2022-07-05 20:0011.1218000
2022-07-02 23:1516.4418000    2022-07-05 21:0012.9718000
2022-07-02 23:0016.6018000    2022-07-05 22:0015.4818000
2022-07-02 22:4516.7118000    2022-07-05 23:0016.6618000
2022-07-02 22:3016.8018000    2022-07-06 00:0016.7718000
2022-07-02 22:1516.8318000    2022-07-06 01:0016.2218000
2022-07-02 22:0016.8618000    2022-07-06 02:0014.8618000
2022-07-02 21:4516.8318000    2022-07-06 03:0013.2518000
2022-07-02 21:3016.7518000    2022-07-06 04:0012.2018000
2022-07-02 21:1516.6318000    2022-07-06 05:0011.4718000
2022-07-02 21:0016.5018000    2022-07-06 06:0011.0718000
2022-07-02 20:4516.3018000    2022-07-06 07:0011.0318000
2022-07-02 20:3016.0218000    2022-07-06 08:0011.1518000
2022-07-02 20:1515.7318000    2022-07-06 09:0011.5618000
2022-07-02 20:0015.4318000    2022-07-06 10:0012.0618000
2022-07-02 19:4515.0818000    2022-07-06 11:0012.4718000
2022-07-02 19:3014.6518000    2022-07-06 12:0012.6518000
2022-07-02 19:1514.1618000    2022-07-06 13:0012.3618000
2022-07-02 19:0013.6218000    2022-07-06 14:0011.7618000
2022-07-02 18:4512.9918000    2022-07-06 15:0011.1018000
2022-07-02 18:3012.2918000    2022-07-06 16:0010.8218000
2022-07-02 18:1511.6018000    2022-07-06 17:0010.7018000
2022-07-02 18:0010.9718000    2022-07-06 18:0010.6718000
2022-07-02 17:4510.4818000    2022-07-06 19:0010.7618000
2022-07-02 17:3010.1518000    2022-07-06 20:0011.3918000
2022-07-02 17:159.9018000    2022-07-06 21:0013.2218000
2022-07-02 17:009.7618000    2022-07-06 22:0015.5018000
2022-07-02 16:459.7118000    2022-07-06 23:0016.5618000
2022-07-02 16:309.6818000    2022-07-07 00:0016.6618000
2022-07-02 16:159.7018000    2022-07-07 01:0016.1518000
2022-07-02 16:009.7318000    2022-07-07 02:0014.8118000
2022-07-02 15:459.7718000    2022-07-07 03:0013.2018000
2022-07-02 15:309.8218000    2022-07-07 04:0012.0418000
2022-07-02 15:159.8918000    2022-07-07 05:0011.2318000
2022-07-02 15:009.9418000    2022-07-07 06:0010.7918000
2022-07-02 14:4510.0218000    2022-07-07 07:0010.6818000
2022-07-02 14:3010.1118000    2022-07-07 08:0010.6518000
2022-07-02 14:1510.1918000    2022-07-07 09:0010.7018000
2022-07-02 14:0010.3018000    2022-07-07 10:0010.8918000
2022-07-02 13:4510.4218000    2022-07-07 11:0011.6318000
2022-07-02 13:3010.5418000    2022-07-07 12:0012.2818000
2022-07-02 13:1510.6818000    2022-07-07 13:0012.5718000
2022-07-02 13:0010.8518000    2022-07-07 14:0012.3818000
2022-07-02 12:4511.0018000    2022-07-07 15:0011.9218000
2022-07-02 12:3011.1718000    2022-07-07 16:0011.4318000
2022-07-02 12:1511.3618000    2022-07-07 17:0010.9618000
2022-07-02 12:0011.5618000    2022-07-07 18:0010.8218000
2022-07-02 11:4511.7818000    2022-07-07 19:0010.8218000
2022-07-02 11:3012.0018000    2022-07-07 20:0011.1518000
2022-07-02 11:1512.2318000    2022-07-07 21:0012.1318000
2022-07-02 11:0012.4618000    2022-07-07 22:0013.8218000
2022-07-02 10:4512.7018000    2022-07-07 23:0015.7818000
2022-07-02 10:3012.9418000    2022-07-08 00:0016.5818000
2022-07-02 10:1513.1518000    2022-07-08 01:0016.6318000
2022-07-02 10:0013.4018000    2022-07-08 02:0016.0318000
2022-07-02 09:4513.6018000    2022-07-08 03:0014.4118000
2022-07-02 09:3013.8318000    2022-07-08 04:0012.7418000
2022-07-02 09:1514.0118000    2022-07-08 05:0011.5918000
2022-07-02 09:0014.2118000    2022-07-08 06:0010.7818000
2022-07-02 08:4514.3418000    2022-07-08 07:0010.5718000
2022-07-02 08:3014.4718000    2022-07-08 08:0010.2418000
2022-07-02 08:1514.5618000    2022-07-08 09:009.9718000
2022-07-02 08:0014.6218000    2022-07-08 10:0010.2118000
2022-07-02 07:4514.6518000    2022-07-08 11:0010.5518000
2022-07-02 07:3014.6318000    2022-07-08 12:0010.8018000
2022-07-02 07:1514.5818000    2022-07-08 13:0011.7818000
2022-07-02 07:0014.5318000    2022-07-08 14:0012.5918000
2022-07-02 06:4514.4218000    2022-07-08 15:0012.8718000
2022-07-02 06:3014.3318000    2022-07-08 16:0012.6518000
2022-07-02 06:1514.2118000    2022-07-08 17:0012.1218000
2022-07-02 06:0014.1318000    2022-07-08 18:0011.6818000
2022-07-02 05:4513.9918000    2022-07-08 19:0011.4718000
2022-07-02 05:3013.8618000    2022-07-08 20:0011.5218000
2022-07-02 05:1513.7518000    2022-07-08 21:0011.9518000
2022-07-02 05:0013.6318000    2022-07-08 22:0012.9318000
2022-07-02 04:4513.4818000    2022-07-08 23:0014.4218000
2022-07-02 04:3013.3918000    2022-07-09 00:0015.9118000
2022-07-02 04:1513.2818000    2022-07-09 01:0016.5018000
2022-07-02 04:0013.2218000    2022-07-09 02:0016.4918000
2022-07-02 03:4513.2118000    2022-07-09 03:0015.7218000
2022-07-02 03:3013.2318000    2022-07-09 04:0013.8818000
2022-07-02 03:1513.2718000    2022-07-09 05:0012.2618000
2022-07-02 03:0013.3718000    2022-07-09 06:0011.0918000
2022-07-02 02:4513.4918000    2022-07-09 07:0010.5318000
2022-07-02 02:3013.6418000    2022-07-09 08:0010.1318000
2022-07-02 02:1513.7918000    2022-07-09 09:009.2218000
2022-07-02 02:0013.9818000    2022-07-09 10:008.7318000
2022-07-02 01:4514.1818000    2022-07-09 11:008.8718000
2022-07-02 01:3014.3718000    2022-07-09 12:009.9918000
2022-07-02 01:1514.5818000    2022-07-09 13:0010.6218000
2022-07-02 01:0014.8218000    2022-07-09 14:0012.0518000
2022-07-02 00:4514.9818000    2022-07-09 15:0013.3218000
2022-07-02 00:3015.2018000    2022-07-09 16:0013.7118000
2022-07-02 00:1515.3718000    2022-07-09 17:0013.4918000
2022-07-02 00:0015.5518000    2022-07-09 18:0013.0918000
2022-07-01 23:4515.7218000    2022-07-09 19:0012.6118000
2022-07-01 23:3015.8718000    2022-07-09 20:0012.2518000
2022-07-01 23:1516.0218000    2022-07-09 21:0012.1018000
2022-07-01 23:0016.1718000    2022-07-09 22:0012.3918000
2022-07-01 22:4516.2918000    2022-07-09 23:0013.4418000
2022-07-01 22:3016.4118000    2022-07-10 00:0015.3518000
2022-07-01 22:1516.5218000    2022-07-10 01:0016.4318000
2022-07-01 22:0016.6018000    2022-07-10 02:0016.5118000
2022-07-01 21:4516.6518000    2022-07-10 03:0015.8318000
2022-07-01 21:3016.6918000    2022-07-10 04:0014.1218000
2022-07-01 21:1516.6518000    2022-07-10 05:0012.4518000
2022-07-01 21:0016.6018000    2022-07-10 06:0011.2618000
2022-07-01 20:4516.5018000    2022-07-10 07:0010.4718000
2022-07-01 20:3016.3718000    2022-07-10 08:0010.1118000
2022-07-01 20:1516.2018000    2022-07-10 09:009.0718000
2022-07-01 20:0015.9718000    2022-07-10 10:008.2818000
2022-07-01 19:4515.7018000    2022-07-10 11:008.2118000
2022-07-01 19:3015.4318000    2022-07-10 12:008.2018000
2022-07-01 19:1515.0918000    2022-07-10 13:008.7618000
2022-07-01 19:0014.7118000    2022-07-10 14:0010.4518000
2022-07-01 18:4514.2318000    2022-07-10 15:0012.6518000
2022-07-01 18:3013.7018000    2022-07-10 16:0014.5018000
2022-07-01 18:1513.0618000    2022-07-10 17:0015.0518000
2022-07-01 18:0012.3918000    2022-07-10 18:0014.7018000
2022-07-01 17:4511.6918000    2022-07-10 19:0013.9618000
2022-07-01 17:3011.1318000    2022-07-10 20:0013.2318000
2022-07-01 17:1510.6318000    2022-07-10 21:0012.7518000
2022-07-01 17:0010.3118000    2022-07-10 22:0012.5618000
2022-07-01 16:4510.1118000    2022-07-10 23:0012.9018000
2022-07-01 16:309.9918000    2022-07-11 00:0014.0118000
2022-07-01 16:159.9318000    2022-07-11 01:0015.6718000
2022-07-01 16:009.9318000    2022-07-11 02:0016.5118000
2022-07-01 15:459.9318000    2022-07-11 03:0016.4918000
2022-07-01 15:309.9818000    2022-07-11 04:0015.4618000
2022-07-01 15:1510.0018000    2022-07-11 05:0013.3218000
2022-07-01 15:0010.0618000    2022-07-11 06:0011.6218000
2022-07-01 14:4510.1118000    2022-07-11 07:0010.4418000
2022-07-01 14:3010.1918000    2022-07-11 08:0010.0518000
2022-07-01 14:1510.2418000    2022-07-11 09:008.7718000
2022-07-01 14:0010.3418000    2022-07-11 10:008.0618000
2022-07-01 13:4510.4118000    2022-07-11 11:007.4118000
2022-07-01 13:3010.5218000    2022-07-11 12:007.2218000
2022-07-01 13:1510.6218000    2022-07-11 13:007.8318000
2022-07-01 13:0010.7518000    2022-07-11 14:009.6918000
2022-07-01 12:4510.8718000    2022-07-11 15:0011.2818000
2022-07-01 12:3011.0218000    2022-07-11 16:0013.9418000
2022-07-01 12:1511.1718000    2022-07-11 17:0015.8718000
2022-07-01 12:0011.3418000    2022-07-11 18:0016.1918000
2022-07-01 11:4511.5218000    2022-07-11 19:0015.7318000
2022-07-01 11:3011.7418000    2022-07-11 20:0014.7618000
2022-07-01 11:1511.9318000    2022-07-11 21:0013.6518000
2022-07-01 11:0012.1318000    2022-07-11 22:0012.9918000
2022-07-01 10:4512.3718000    2022-07-11 23:0012.7518000
2022-07-01 10:3012.6118000    2022-07-12 00:0013.1018000
2022-07-01 10:1512.8518000    2022-07-12 01:0014.2218000
2022-07-01 10:0013.0718000    2022-07-12 02:0015.7718000
2022-07-01 09:4513.3218000    2022-07-12 03:0016.5218000
2022-07-01 09:3013.5618000    2022-07-12 04:0016.4818000
2022-07-01 09:1513.7918000    2022-07-12 05:0015.3418000
2022-07-01 09:0014.0018000    2022-07-12 06:0013.1118000
2022-07-01 08:4514.2118000    2022-07-12 07:0011.4218000
2022-07-01 08:3014.4118000    2022-07-12 08:0010.3018000
2022-07-01 08:1514.5618000    2022-07-12 09:009.7818000
2022-07-01 08:0014.7218000    2022-07-12 10:008.2718000
2022-07-01 07:4514.8218000    2022-07-12 11:007.7018000
2022-07-01 07:3014.9218000    2022-07-12 12:007.0418000
2022-07-01 07:1514.9718000    2022-07-12 13:006.9218000
2022-07-01 07:0014.9818000    2022-07-12 14:007.0318000
2022-07-01 06:4514.9818000    2022-07-12 15:008.8418000
2022-07-01 06:3014.9318000    2022-07-12 16:0011.3318000
2022-07-01 06:1514.8618000    2022-07-12 17:0014.7018000
2022-07-01 06:0014.7918000    2022-07-12 18:0016.5618000
2022-07-01 05:4514.6818000    2022-07-12 19:0016.7818000
2022-07-01 05:3014.5818000    2022-07-12 20:0016.3018000
2022-07-01 05:1514.4718000    2022-07-12 21:0015.2318000
2022-07-01 05:0014.3718000    2022-07-12 22:0013.8518000
2022-07-01 04:4514.2418000    2022-07-12 23:0012.9918000
2022-07-01 04:3014.1118000    2022-07-13 00:0012.6818000
2022-07-01 04:1513.9718000    2022-07-13 01:0013.0218000
2022-07-01 04:0013.8318000    2022-07-13 02:0014.1318000
2022-07-01 03:4513.7018000    2022-07-13 03:0015.7018000
2022-07-01 03:3013.6218000    2022-07-13 04:0016.4718000
2022-07-01 03:1513.5518000    2022-07-13 05:0016.4318000
2022-07-01 03:0013.5618000   
2022-07-01 02:4513.5918000   
2022-07-01 02:3013.6618000   
2022-07-01 02:1513.7718000   
2022-07-01 02:0013.8918000   
2022-07-01 01:4514.0318000   
2022-07-01 01:3014.2118000   
2022-07-01 01:1514.3618000   
2022-07-01 01:0014.5418000   
2022-07-01 00:4514.7418000   
2022-07-01 00:3014.9218000   
2022-07-01 00:1515.1118000   
2022-07-01 00:0015.3018000   
2022-06-30 23:4515.4618000   
2022-06-30 23:3015.6418000   
2022-06-30 23:1515.7918000   
2022-06-30 23:0015.9318000   
2022-06-30 22:4516.0918000   
2022-06-30 22:3016.2518000   
2022-06-30 22:1516.3418000   
2022-06-30 22:0016.4718000   
2022-06-30 21:4516.5618000   
2022-06-30 21:3016.6318000   
2022-06-30 21:1516.6718000   
2022-06-30 21:0016.6918000   
2022-06-30 20:4516.6718000   
2022-06-30 20:3016.6218000   
2022-06-30 20:1516.5218000   
2022-06-30 20:0016.3918000   
2022-06-30 19:4516.2118000   
2022-06-30 19:3016.0018000   
2022-06-30 19:1515.7618000   
2022-06-30 19:0015.4818000   
2022-06-30 18:4515.1618000   
2022-06-30 18:3014.7818000   
2022-06-30 18:1514.3418000   
2022-06-30 18:0013.8118000   
2022-06-30 17:4513.2118000   
2022-06-30 17:3012.5818000   
2022-06-30 17:1511.9218000   
2022-06-30 17:0011.3718000   
2022-06-30 16:4510.9618000   
2022-06-30 16:3010.6818000   
2022-06-30 16:1510.5018000   
2022-06-30 16:0010.4218000   
2022-06-30 15:4510.3818000   
2022-06-30 15:3010.4018000   
2022-06-30 15:1510.4118000   
2022-06-30 15:0010.4518000   
2022-06-30 14:4510.4918000   
2022-06-30 14:3010.5618000   
2022-06-30 14:1510.6018000   
2022-06-30 14:0010.6818000   
2022-06-30 13:4510.7318000   
2022-06-30 13:3010.8318000   
2022-06-30 13:1510.9118000   
2022-06-30 13:0011.0218000   
2022-06-30 12:4511.1018000   
2022-06-30 12:3011.2218000   
2022-06-30 12:1511.3518000   
2022-06-30 12:0011.4918000   
2022-06-30 11:4511.6218000   
2022-06-30 11:3011.7818000   
2022-06-30 11:1511.9518000   
2022-06-30 11:0012.1618000   
2022-06-30 10:4512.3518000   
2022-06-30 10:3012.5418000   
2022-06-30 10:1512.7618000   
2022-06-30 10:0012.9718000   
2022-06-30 09:4513.2118000   
2022-06-30 09:3013.4318000   
2022-06-30 09:1513.6718000   
2022-06-30 09:0013.8918000   
2022-06-30 08:4514.1218000   
2022-06-30 08:3014.3218000   
2022-06-30 08:1514.5318000   
2022-06-30 08:0014.7218000   
2022-06-30 07:4514.8718000   
2022-06-30 07:3015.0218000   
2022-06-30 07:1515.1318000   
2022-06-30 07:0015.2118000   
2022-06-30 06:4515.2718000   
2022-06-30 06:3015.2918000   
2022-06-30 06:1515.2818000   
2022-06-30 06:0015.2418000   
2022-06-30 05:4515.1818000   
2022-06-30 05:3015.0918000   
2022-06-30 05:1515.0118000   
2022-06-30 05:0014.9118000   
2022-06-30 04:4514.7618000   
2022-06-30 04:3014.6618000   
2022-06-30 04:1514.5418000   
2022-06-30 04:0014.4218000   
2022-06-30 03:4514.3218000   
2022-06-30 03:3014.2118000   
2022-06-30 03:1514.0918000   
2022-06-30 03:0014.0318000   
2022-06-30 02:4513.9718000   
2022-06-30 02:3013.9718000   
2022-06-30 02:1513.9918000   
2022-06-30 02:0014.0418000   
2022-06-30 01:4514.1318000   
2022-06-30 01:3014.2418000   
2022-06-30 01:1514.3618000   
2022-06-30 01:0014.5418000   
2022-06-30 00:4514.6618000   
2022-06-30 00:3014.8418000   
2022-06-30 00:1515.0018000   
2022-06-30 00:0015.1718000   
2022-06-29 23:4515.3518000   
2022-06-29 23:3015.5218000   
2022-06-29 23:1515.6818000   
2022-06-29 23:0015.8618000   
2022-06-29 22:4516.0118000   
2022-06-29 22:3016.1718000   
2022-06-29 22:1516.3018000   
2022-06-29 22:0016.4218000   
2022-06-29 21:4516.5418000   
2022-06-29 21:3016.6518000   
2022-06-29 21:1516.7318000   
2022-06-29 21:0016.8018000   
2022-06-29 20:4516.8618000   
2022-06-29 20:3016.8718000   
2022-06-29 20:1516.8418000   
2022-06-29 20:0016.8018000   
2022-06-29 19:4516.7018000   
2022-06-29 19:3016.5818000   
2022-06-29 19:1516.4118000   
2022-06-29 19:0016.2018000   
2022-06-29 18:4515.9418000   
2022-06-29 18:3015.6418000   
2022-06-29 18:1515.3318000   
2022-06-29 18:0014.9818000   
2022-06-29 17:4514.5818000   
2022-06-29 17:3014.0918000   
2022-06-29 17:1513.5518000   
2022-06-29 17:0012.9918000   
2022-06-29 16:4512.4518000   
2022-06-29 16:3012.0118000   
2022-06-29 16:1511.6718000   
2022-06-29 16:0011.4418000   
2022-06-29 15:4511.3118000   
2022-06-29 15:3011.2418000   
2022-06-29 15:1511.1918000   
2022-06-29 15:0011.1818000   
2022-06-29 14:4511.2018000   
2022-06-29 14:3011.2118000   
2022-06-29 14:1511.2218000   
2022-06-29 14:0011.2618000   
2022-06-29 13:4511.2918000   
2022-06-29 13:3011.3518000   
2022-06-29 13:1511.3918000   
2022-06-29 13:0011.4518000   
2022-06-29 12:4511.5118000   
2022-06-29 12:3011.5918000   
2022-06-29 12:1511.6618000   
2022-06-29 12:0011.7718000   
2022-06-29 11:4511.8818000   
2022-06-29 11:3011.9918000   
2022-06-29 11:1512.1118000   
2022-06-29 11:0012.3018000   
2022-06-29 10:4512.4018000   
2022-06-29 10:3012.5618000   
2022-06-29 10:1512.7518000   
2022-06-29 10:0012.9318000   
2022-06-29 09:4513.1418000   
2022-06-29 09:3013.3418000   
2022-06-29 09:1513.5618000   
2022-06-29 09:0013.7718000   
2022-06-29 08:4513.9918000   
2022-06-29 08:3014.2018000   
2022-06-29 08:1514.4018000   
2022-06-29 08:0014.6118000   
2022-06-29 07:4514.8018000   
2022-06-29 07:3015.0018000   
2022-06-29 07:1515.1718000   
2022-06-29 07:0015.3318000   
2022-06-29 06:4515.4518000   
2022-06-29 06:3015.5518000   
2022-06-29 06:1515.6018000   
2022-06-29 06:0015.6518000   
2022-06-29 05:4515.6418000   
2022-06-29 05:3015.6318000   
2022-06-29 05:1515.5618000   
2022-06-29 05:0015.4718000   
2022-06-29 04:4515.3618000   
2022-06-29 04:3015.2418000   
2022-06-29 04:1515.1318000   
2022-06-29 04:0015.0018000   
2022-06-29 03:4514.8818000   
2022-06-29 03:3014.7618000   
2022-06-29 03:1514.6318000   
2022-06-29 03:0014.5218000   
2022-06-29 02:4514.4418000   
2022-06-29 02:3014.3618000   
2022-06-29 02:1514.3118000   
2022-06-29 02:0014.2818000   
2022-06-29 01:4514.3118000   
2022-06-29 01:3014.3718000   
2022-06-29 01:1514.4518000   
2022-06-29 01:0014.5518000   
2022-06-29 00:4514.6618000   
2022-06-29 00:3014.8118000   
2022-06-29 00:1514.9518000   
2022-06-29 00:0015.1118000   
2022-06-28 23:4515.2918000   
2022-06-28 23:3015.4618000   
2022-06-28 23:1515.6418000   
2022-06-28 23:0015.8018000   
2022-06-28 22:4515.9418000   
2022-06-28 22:3016.1118000   
2022-06-28 22:1516.2618000   
2022-06-28 22:0016.4018000   
2022-06-28 21:4516.5318000   
2022-06-28 21:3016.6518000   
2022-06-28 21:1516.7618000   
2022-06-28 21:0016.8918000   
2022-06-28 20:4516.9918000   
2022-06-28 20:3017.0518000   
2022-06-28 20:1517.1018000   
2022-06-28 20:0017.1318000   
2022-06-28 19:4517.1218000   
2022-06-28 19:3017.0618000   
2022-06-28 19:1516.9618000   
2022-06-28 19:0016.8618000   
2022-06-28 18:4516.6918000   
2022-06-28 18:3016.4718000   
2022-06-28 18:1516.2218000   
2022-06-28 18:0015.9618000   
2022-06-28 17:4515.6518000   
2022-06-28 17:3015.3118000   
2022-06-28 17:1514.9218000   
2022-06-28 17:0014.5018000   
2022-06-28 16:4514.0418000   
2022-06-28 16:3013.5618000   
2022-06-28 16:1513.1118000   
2022-06-28 16:0012.6818000   
2022-06-28 15:4512.3718000   
2022-06-28 15:3012.1618000   
2022-06-28 15:1512.0318000   
2022-06-28 15:0011.9418000   
2022-06-28 14:4511.9218000   
2022-06-28 14:3011.9118000   
2022-06-28 14:1511.9118000   
2022-06-28 14:0011.9618000   
2022-06-28 13:4511.9918000   
2022-06-28 13:3012.0418000   
2022-06-28 13:1512.0718000   
2022-06-28 13:0012.1318000   
2022-06-28 12:4512.1818000   
2022-06-28 12:3012.2518000   
2022-06-28 12:1512.3218000   
2022-06-28 12:0012.4018000   
2022-06-28 11:4512.4918000   
2022-06-28 11:3012.5818000   
2022-06-28 11:1512.6918000   
2022-06-28 11:0012.8018000   
2022-06-28 10:4512.9118000   
2022-06-28 10:3013.0618000   
2022-06-28 10:1513.1918000   
2022-06-28 10:0013.3518000   
2022-06-28 09:4513.5018000   
2022-06-28 09:3013.6718000   
2022-06-28 09:1513.8718000   
2022-06-28 09:0014.0418000   
2022-06-28 08:4514.2418000   
2022-06-28 08:3014.4418000   
2022-06-28 08:1514.6418000   
2022-06-28 08:0014.8118000   
2022-06-28 07:4515.0218000   
2022-06-28 07:3015.2018000   
2022-06-28 07:1515.3718000   
2022-06-28 07:0015.5618000   
2022-06-28 06:4515.7218000   
2022-06-28 06:3015.8518000   
2022-06-28 06:1515.9918000   
2022-06-28 06:0016.1018000   
2022-06-28 05:4516.1618000   
2022-06-28 05:3016.2218000   
2022-06-28 05:1516.2318000   
2022-06-28 05:0016.1918000   
2022-06-28 04:4516.1418000   
2022-06-28 04:3016.0818000   
2022-06-28 04:1515.9818000   
2022-06-28 04:0015.8718000   
2022-06-28 03:4515.7418000   
2022-06-28 03:3015.6218000   
2022-06-28 03:1515.5018000   
2022-06-28 03:0015.3618000   
2022-06-28 02:4515.2318000   
2022-06-28 02:3015.1018000   
2022-06-28 02:1514.9618000   
2022-06-28 02:0014.8418000   
2022-06-28 01:4514.7318000   
2022-06-28 01:3014.6618000   
2022-06-28 01:1514.6218000   
2022-06-28 01:0014.6118000   
2022-06-28 00:4514.6518000   
2022-06-28 00:3014.7218000   
2022-06-28 00:1514.7918000   
2022-06-28 00:0014.8918000   
2022-06-27 23:4515.0218000   
2022-06-27 23:3015.1518000   
2022-06-27 23:1515.2918000   
2022-06-27 23:0015.4318000   
2022-06-27 22:4515.5718000   
2022-06-27 22:3015.7118000   
2022-06-27 22:1515.8518000   
2022-06-27 22:0016.0018000   
2022-06-27 21:4516.1318000   
2022-06-27 21:3016.2718000   
2022-06-27 21:1516.4018000   
2022-06-27 21:0016.5318000   
2022-06-27 20:4516.6518000   
2022-06-27 20:3016.7418000   
2022-06-27 20:1516.8518000   
2022-06-27 20:0016.9318000   
2022-06-27 19:4516.9818000   
2022-06-27 19:3017.0118000   
2022-06-27 19:1517.0318000   
2022-06-27 19:0016.9918000   
2022-06-27 18:4516.9218000   
2022-06-27 18:3016.8218000   
2022-06-27 18:1516.6718000   
2022-06-27 18:0016.4918000   
2022-06-27 17:4516.2818000   
2022-06-27 17:3016.0218000   
2022-06-27 17:1515.7318000   
2022-06-27 17:0015.4118000   
2022-06-27 16:4515.0618000   
2022-06-27 16:3014.6818000   
2022-06-27 16:1514.2518000   
2022-06-27 16:0013.7618000   
2022-06-27 15:4513.2418000   
2022-06-27 15:3012.7318000   
2022-06-27 15:1512.3218000   
2022-06-27 15:0012.0218000   
2022-06-27 14:4511.8118000   
2022-06-27 14:3011.6818000   
2022-06-27 14:1511.6218000   
2022-06-27 14:0011.5918000   
2022-06-27 13:4511.5718000   
2022-06-27 13:3011.5918000   
2022-06-27 13:1511.6118000   
2022-06-27 13:0011.6518000   
2022-06-27 12:4511.6818000   
2022-06-27 12:3011.7218000   
2022-06-27 12:1511.7818000   
2022-06-27 12:0011.8318000   
2022-06-27 11:4511.9118000   
2022-06-27 11:3011.9718000   
2022-06-27 11:1512.0418000   
2022-06-27 11:0012.1318000   
2022-06-27 10:4512.2218000   
2022-06-27 10:3012.3418000   
2022-06-27 10:1512.4518000   
2022-06-27 10:0012.5918000   
2022-06-27 09:4512.7218000   
2022-06-27 09:3012.8718000   
2022-06-27 09:1513.0418000   
2022-06-27 09:0013.2018000   
2022-06-27 08:4513.3918000   
2022-06-27 08:3013.5818000   
2022-06-27 08:1513.7818000   
2022-06-27 08:0013.9818000   
2022-06-27 07:4514.1818000   
2022-06-27 07:3014.3918000   
2022-06-27 07:1514.5818000   
2022-06-27 07:0014.7918000   
2022-06-27 06:4514.9818000   
2022-06-27 06:3015.1518000   
2022-06-27 06:1515.3518000   
2022-06-27 06:0015.4918000   
2022-06-27 05:4515.6318000   
2022-06-27 05:3015.7718000   
2022-06-27 05:1515.8618000   
2022-06-27 05:0015.9218000   
2022-06-27 04:4515.9518000   
2022-06-27 04:3015.9518000   
2022-06-27 04:1515.9118000   
2022-06-27 04:0015.8318000   
2022-06-27 03:4515.7418000   
2022-06-27 03:3015.6218000   
2022-06-27 03:1515.4918000   
2022-06-27 03:0015.3518000   
2022-06-27 02:4515.2118000   
2022-06-27 02:3015.0518000   
2022-06-27 02:1514.8918000   
2022-06-27 02:0014.7418000   
2022-06-27 01:4514.5818000   
2022-06-27 01:3014.4418000   
2022-06-27 01:1514.3018000   
2022-06-27 01:0014.1818000   
2022-06-27 00:4514.1118000   
2022-06-27 00:3014.0518000   
2022-06-27 00:1514.0418000   
2022-06-27 00:0014.0518000   
2022-06-26 23:4514.1118000   
2022-06-26 23:3014.1918000   
2022-06-26 23:1514.2818000   
2022-06-26 23:0014.4018000   
2022-06-26 22:4514.5318000   
2022-06-26 22:3014.6618000   
2022-06-26 22:1514.8118000   
2022-06-26 22:0014.9518000   
2022-06-26 21:4515.0918000   
2022-06-26 21:3015.2418000   
2022-06-26 21:1515.3618000   
2022-06-26 21:0015.4818000   
2022-06-26 20:4515.6118000   
2022-06-26 20:3015.7318000   
2022-06-26 20:1515.8318000   
2022-06-26 20:0015.9318000   
2022-06-26 19:4516.0118000   
2022-06-26 19:3016.0818000   
2022-06-26 19:1516.1418000   
2022-06-26 19:0016.1918000   
2022-06-26 18:4516.2018000   
2022-06-26 18:3016.1918000   
2022-06-26 18:1516.1518000   
2022-06-26 18:0016.1118000   
2022-06-26 17:4516.0218000   
2022-06-26 17:3015.8918000   
2022-06-26 17:1515.7218000   
2022-06-26 17:0015.5218000   
2022-06-26 16:4515.3018000   
2022-06-26 16:3015.0218000   
2022-06-26 16:1514.7218000   
2022-06-26 16:0014.3818000   
2022-06-26 15:4513.9718000   
2022-06-26 15:3013.5318000   
2022-06-26 15:1513.0318000   
2022-06-26 15:0012.5418000   
2022-06-26 14:4512.1018000   
2022-06-26 14:3011.7518000   
2022-06-26 14:1511.5218000   
2022-06-26 14:0011.3718000   
2022-06-26 13:4511.2618000   
2022-06-26 13:3011.2218000   
2022-06-26 13:1511.1918000   
2022-06-26 13:0011.2018000   
2022-06-26 12:4511.2118000   
2022-06-26 12:3011.2518000   
2022-06-26 12:1511.2818000   
2022-06-26 12:0011.3118000   
2022-06-26 11:4511.3618000   
2022-06-26 11:3011.4118000   
2022-06-26 11:1511.4818000   
2022-06-26 11:0011.5518000   
2022-06-26 10:4511.6318000   
2022-06-26 10:3011.7018000   
2022-06-26 10:1511.7918000   
2022-06-26 10:0011.9018000   
2022-06-26 09:4512.0118000   
2022-06-26 09:3012.1418000   
2022-06-26 09:1512.2618000   
2022-06-26 09:0012.4218000   
2022-06-26 08:4512.5718000   
2022-06-26 08:3012.7518000   
2022-06-26 08:1512.9418000   
2022-06-26 08:0013.1318000   
2022-06-26 07:4513.3318000   
2022-06-26 07:3013.5318000   
2022-06-26 07:1513.7418000   
2022-06-26 07:0013.9518000   
2022-06-26 06:4514.1718000   
2022-06-26 06:3014.3718000   
2022-06-26 06:1514.5718000   
2022-06-26 06:0014.7818000   
2022-06-26 05:4514.9718000   
2022-06-26 05:3015.1618000   
2022-06-26 05:1515.3318000   
2022-06-26 05:0015.4718000   
2022-06-26 04:4515.6018000   
2022-06-26 04:3015.6718000   
2022-06-26 04:1515.7218000   
2022-06-26 04:0015.7418000   
2022-06-26 03:4515.7118000   
2022-06-26 03:3015.6318000   
2022-06-26 03:1515.5418000   
2022-06-26 03:0015.4518000   
2022-06-26 02:4515.3118000   
2022-06-26 02:3015.1618000   
2022-06-26 02:1514.9918000   
2022-06-26 02:0014.8518000   
2022-06-26 01:4514.6818000   
2022-06-26 01:3014.5118000   
2022-06-26 01:1514.3218000   
2022-06-26 01:0014.1618000   
2022-06-26 00:4513.9818000   
2022-06-26 00:3013.7918000   
2022-06-26 00:1513.6418000   
2022-06-26 00:0013.5118000   
2022-06-25 23:4513.4318000   
2022-06-25 23:3013.3818000   
2022-06-25 23:1513.3918000   
2022-06-25 23:0013.4218000   
2022-06-25 22:4513.4818000   
2022-06-25 22:3013.5818000   
2022-06-25 22:1513.6818000   
2022-06-25 22:0013.8018000   
2022-06-25 21:4513.9318000   
2022-06-25 21:3014.0618000   
2022-06-25 21:1514.2018000   
2022-06-25 21:0014.3218000   
2022-06-25 20:4514.4518000   
2022-06-25 20:3014.5918000   
2022-06-25 20:1514.7118000   
2022-06-25 20:0014.8218000   
2022-06-25 19:4514.9418000   
2022-06-25 19:3015.0418000   
2022-06-25 19:1515.1318000   
2022-06-25 19:0015.2318000   
2022-06-25 18:4515.3018000   
2022-06-25 18:3015.3518000   
2022-06-25 18:1515.4018000   
2022-06-25 18:0015.4218000   
2022-06-25 17:4515.4118000   
2022-06-25 17:3015.3918000   
2022-06-25 17:1515.3518000   
2022-06-25 17:0015.2618000   
2022-06-25 16:4515.1318000   
2022-06-25 16:3014.9818000   
2022-06-25 16:1514.8118000   
2022-06-25 16:0014.6118000   
2022-06-25 15:4514.3818000   
2022-06-25 15:3014.1018000   
2022-06-25 15:1513.7818000   
2022-06-25 15:0013.3618000   
2022-06-25 14:4512.8918000   
2022-06-25 14:3012.3918000   
2022-06-25 14:1511.9418000   
2022-06-25 14:0011.5218000   
2022-06-25 13:4511.1918000   
2022-06-25 13:3010.9718000   
2022-06-25 13:1510.8318000   
2022-06-25 13:0010.7318000   
2022-06-25 12:4510.7018000   
2022-06-25 12:3010.6718000   
2022-06-25 12:1510.6918000   
2022-06-25 12:0010.7018000   
2022-06-25 11:4510.7418000   
2022-06-25 11:3010.7818000   
2022-06-25 11:1510.8318000   
2022-06-25 11:0010.9018000   
2022-06-25 10:4510.9518000   
2022-06-25 10:3011.0418000   
2022-06-25 10:1511.1118000   
2022-06-25 10:0011.2218000   
2022-06-25 09:4511.3118000   
2022-06-25 09:3011.4418000   
2022-06-25 09:1511.5518000   
2022-06-25 09:0011.6918000   
2022-06-25 08:4511.8418000   
2022-06-25 08:3012.0218000   
2022-06-25 08:1512.1818000   
2022-06-25 08:0012.3918000   
2022-06-25 07:4512.5718000   
2022-06-25 07:3012.7818000   
2022-06-25 07:1513.0118000   
2022-06-25 07:0013.2218000   
2022-06-25 06:4513.4718000   
2022-06-25 06:3013.6918000   
2022-06-25 06:1513.9318000   
2022-06-25 06:0014.1618000   
2022-06-25 05:4514.3918000   
2022-06-25 05:3014.6218000   
2022-06-25 05:1514.8418000   
2022-06-25 05:0015.0418000   
2022-06-25 04:4515.2318000   
2022-06-25 04:3015.4318000   
2022-06-25 04:1515.5818000   
2022-06-25 04:0015.7018000   
2022-06-25 03:4515.7918000   
2022-06-25 03:3015.8318000   
2022-06-25 03:1515.8418000   
2022-06-25 03:0015.8018000   
2022-06-25 02:4515.7318000   
2022-06-25 02:3015.6218000   
2022-06-25 02:1515.4918000   
2022-06-25 02:0015.3318000   
2022-06-25 01:4515.1318000   
2022-06-25 01:3014.9218000   
2022-06-25 01:1514.7318000   
2022-06-25 01:0014.5418000   
2022-06-25 00:4514.3318000   
2022-06-25 00:3014.1218000   
2022-06-25 00:1513.9218000   
2022-06-25 00:0013.7218000   
2022-06-24 23:4513.5218000   
2022-06-24 23:3013.3418000   
2022-06-24 23:1513.2318000   
2022-06-24 23:0013.1218000   
2022-06-24 22:4513.0618000   
2022-06-24 22:3013.0618000   
2022-06-24 22:1513.0618000   
2022-06-24 22:0013.1218000   
2022-06-24 21:4513.1818000   
2022-06-24 21:3013.2618000   
2022-06-24 21:1513.3718000   
2022-06-24 21:0013.4818000   
2022-06-24 20:4513.5918000   
2022-06-24 20:3013.7318000   
2022-06-24 20:1513.8418000   
2022-06-24 20:0013.9718000   
2022-06-24 19:4514.0918000   
2022-06-24 19:3014.2018000   
2022-06-24 19:1514.3218000   
2022-06-24 19:0014.4118000   
2022-06-24 18:4514.5018000   
2022-06-24 18:3014.5918000   
2022-06-24 18:1514.6618000   
2022-06-24 18:0014.7318000   
2022-06-24 17:4514.8018000   
2022-06-24 17:3014.8418000   
2022-06-24 17:1514.8718000   
2022-06-24 17:0014.8918000   
2022-06-24 16:4514.8818000   
2022-06-24 16:3014.8418000   
2022-06-24 16:1514.7818000   
2022-06-24 16:0014.6818000   
2022-06-24 15:4514.5618000   
2022-06-24 15:3014.4318000   
2022-06-24 15:1514.2618000   
2022-06-24 15:0014.0618000   
2022-06-24 14:4513.8118000   
2022-06-24 14:3013.5418000   
2022-06-24 14:1513.2018000   
2022-06-24 14:0012.8318000   
2022-06-24 13:4512.4918000   
2022-06-24 13:3012.1518000   
2022-06-24 13:1511.8518000   
2022-06-24 13:0011.6518000   
2022-06-24 12:4511.4918000   
2022-06-24 12:3011.3918000   
2022-06-24 12:1511.3218000   
2022-06-24 12:0011.2918000   
2022-06-24 11:4511.2918000   
2022-06-24 11:3011.3018000   
2022-06-24 11:1511.3418000   
2022-06-24 11:0011.3718000   
2022-06-24 10:4511.4318000   
2022-06-24 10:3011.4818000   
2022-06-24 10:1511.5618000   
2022-06-24 10:0011.6318000   
2022-06-24 09:4511.7218000   
2022-06-24 09:3011.8018000   
2022-06-24 09:1511.9218000   
2022-06-24 09:0012.0318000   
2022-06-24 08:4512.1618000   
2022-06-24 08:3012.2918000   
2022-06-24 08:1512.4518000   
2022-06-24 08:0012.6118000   
2022-06-24 07:4512.7918000   
2022-06-24 07:3012.9718000   
2022-06-24 07:1513.1718000   
2022-06-24 07:0013.3718000   
2022-06-24 06:4513.5918000   
2022-06-24 06:3013.8018000   
2022-06-24 06:1514.0218000   
2022-06-24 06:0014.2618000   
2022-06-24 05:4514.4818000   
2022-06-24 05:3014.7218000   
2022-06-24 05:1514.9418000   
2022-06-24 05:0015.1518000   
2022-06-24 04:4515.3718000   
2022-06-24 04:3015.5618000   
2022-06-24 04:1515.7618000   
2022-06-24 04:0015.9418000   
2022-06-24 03:4516.1118000   
2022-06-24 03:3016.2618000   
2022-06-24 03:1516.3718000   
2022-06-24 03:0016.4418000   
2022-06-24 02:4516.4818000   
2022-06-24 02:3016.4618000   
2022-06-24 02:1516.3918000   
2022-06-24 02:0016.3018000   
2022-06-24 01:4516.1618000   
2022-06-24 01:3016.0018000   
2022-06-24 01:1515.8018000   
2022-06-24 01:0015.5818000   
2022-06-24 00:4515.3418000   
2022-06-24 00:3015.0818000   
2022-06-24 00:1514.8118000   
2022-06-24 00:0014.5618000   
2022-06-23 23:4514.3118000   
2022-06-23 23:3014.0718000   
2022-06-23 23:1513.8518000   
2022-06-23 23:0013.6618000   
2022-06-23 22:4513.4918000   
2022-06-23 22:3013.3418000   
2022-06-23 22:1513.2118000   
2022-06-23 22:0013.1218000   
2022-06-23 21:4513.0618000   
2022-06-23 21:3013.0618000   
2022-06-23 21:1513.0618000   
2022-06-23 21:0013.0918000   
2022-06-23 20:4513.1518000   
2022-06-23 20:3013.2218000   
2022-06-23 20:1513.3018000   
2022-06-23 20:0013.3818000   
2022-06-23 19:4513.4718000   
2022-06-23 19:3013.5818000   
2022-06-23 19:1513.6718000   
2022-06-23 19:0013.7618000   
2022-06-23 18:4513.8818000   
2022-06-23 18:3013.9718000   
2022-06-23 18:1514.0618000   
2022-06-23 18:0014.1318000   
2022-06-23 17:4514.2018000   
2022-06-23 17:3014.2918000   
2022-06-23 17:1514.3518000   
2022-06-23 17:0014.4418000   
2022-06-23 16:4514.4818000   
2022-06-23 16:3014.5318000   
2022-06-23 16:1514.5818000   
2022-06-23 16:0014.5918000   
2022-06-23 15:4514.5818000   
2022-06-23 15:3014.5618000   
2022-06-23 15:1514.5018000   
2022-06-23 15:0014.4218000   
2022-06-23 14:4514.3418000   
2022-06-23 14:3014.2018000   
2022-06-23 14:1514.0418000   
2022-06-23 14:0013.8718000   
2022-06-23 13:4513.6518000   
2022-06-23 13:3013.4218000   
2022-06-23 13:1513.1718000   
2022-06-23 13:0012.9118000   
2022-06-23 12:4512.6718000   
2022-06-23 12:3012.5118000   
2022-06-23 12:1512.3618000   
2022-06-23 12:0012.2418000   
2022-06-23 11:4512.1618000   
2022-06-23 11:3012.1018000   
2022-06-23 11:1512.0718000   
2022-06-23 11:0012.0618000   
2022-06-23 10:4512.0818000   
2022-06-23 10:3012.1018000   
2022-06-23 10:1512.1318000   
2022-06-23 10:0012.1818000   
2022-06-23 09:4512.2418000   
2022-06-23 09:3012.3218000   
2022-06-23 09:1512.3818000   
2022-06-23 09:0012.4818000   
2022-06-23 08:4512.5818000   
2022-06-23 08:3012.6918000   
2022-06-23 08:1512.8018000   
2022-06-23 08:0012.9518000   
2022-06-23 07:4513.0918000   
2022-06-23 07:3013.2618000   
2022-06-23 07:1513.4218000   
2022-06-23 07:0013.6118000   
2022-06-23 06:4513.7918000   
2022-06-23 06:3013.9918000   
2022-06-23 06:1514.2118000   
2022-06-23 06:0014.4118000   
2022-06-23 05:4514.6318000   
2022-06-23 05:3014.8418000   
2022-06-23 05:1515.0618000   
2022-06-23 05:0015.2818000   
2022-06-23 04:4515.4918000   
2022-06-23 04:3015.7118000   
2022-06-23 04:1515.9018000   
2022-06-23 04:0016.0918000   
2022-06-23 03:4516.2918000   
2022-06-23 03:3016.4618000   
2022-06-23 03:1516.6418000   
2022-06-23 03:0016.7818000   
2022-06-23 02:4516.9118000   
2022-06-23 02:3017.0218000   
2022-06-23 02:1517.0818000   
2022-06-23 02:0017.0818000   
2022-06-23 01:4517.0418000   
2022-06-23 01:3016.9818000   
2022-06-23 01:1516.8618000   
2022-06-23 01:0016.7018000   
2022-06-23 00:4516.4618000   
2022-06-23 00:3016.2418000   
2022-06-23 00:1515.9718000   
2022-06-23 00:0015.6618000   
2022-06-22 23:4515.3418000   
2022-06-22 23:3015.0118000   
2022-06-22 23:1514.7118000   
2022-06-22 23:0014.3818000   
2022-06-22 22:4514.0718000   
2022-06-22 22:3013.7818000   
2022-06-22 22:1513.5318000   
2022-06-22 22:0013.2818000   
2022-06-22 21:4513.0718000   
2022-06-22 21:3012.9018000   
2022-06-22 21:1512.7918000   
2022-06-22 21:0012.7018000   
2022-06-22 20:4512.6518000   
2022-06-22 20:3012.6218000   
2022-06-22 20:1512.6218000   
2022-06-22 20:0012.6518000   
2022-06-22 19:4512.6818000   
2022-06-22 19:3012.7418000   
2022-06-22 19:1512.7918000   
2022-06-22 19:0012.8618000   
2022-06-22 18:4512.9318000   
2022-06-22 18:3013.0018000   
2022-06-22 18:1513.0918000   
2022-06-22 18:0013.1818000   
2022-06-22 17:4513.2618000   
2022-06-22 17:3013.3518000   
2022-06-22 17:1513.4418000   
2022-06-22 17:0013.5318000